| time (UTC) | temp F | wind direction | speed knots | gust knots | rain 1hr in | rain 24hr in | rain mn in | humidity % | barometer mb |
| 20260502220316 | 55 | 319 | 5.2 | 8.7 | 0.00 | 0.01 | 0.00 | 46 | 1010.8 |
| 20260502215338 | 54 | 323 | 4.3 | 9.6 | 0.00 | 0.01 | 0.00 | 47 | 1010.9 |
| 20260502214315 | 55 | 338 | 3.5 | 7.8 | 0.00 | 0.01 | 0.00 | 48 | 1010.9 |
| 20260502213353 | 54 | 328 | 6.1 | 10.4 | 0.00 | 0.01 | 0.00 | 47 | 1011.0 |
| 20260502212320 | 54 | 317 | 5.2 | 9.6 | 0.00 | 0.01 | 0.00 | 48 | 1011.1 |
| 20260502211337 | 54 | 351 | 6.1 | 9.6 | 0.00 | 0.01 | 0.00 | 48 | 1010.9 |
| 20260502210316 | 54 | 326 | 6.1 | 10.4 | 0.00 | 0.01 | 0.00 | 48 | 1010.7 |
| 20260502205342 | 55 | 324 | 7.0 | 12.2 | 0.00 | 0.01 | 0.00 | 47 | 1010.7 |
| 20260502204350 | 56 | 331 | 5.2 | 12.2 | 0.00 | 0.01 | 0.00 | 47 | 1010.6 |
| 20260502203333 | 56 | 291 | 2.6 | 9.6 | 0.00 | 0.01 | 0.00 | 49 | 1010.7 |
| 20260502202336 | 56 | 315 | 5.2 | 12.2 | 0.00 | 0.01 | 0.00 | 47 | 1010.7 |
| 20260502201333 | 56 | 331 | 6.1 | 10.4 | 0.00 | 0.01 | 0.00 | 47 | 1010.8 |
| 20260502200314 | 56 | 348 | 3.5 | 12.2 | 0.00 | 0.01 | 0.00 | 51 | 1010.8 |
| 20260502195332 | 55 | 325 | 5.2 | 10.4 | 0.00 | 0.01 | 0.00 | 50 | 1010.9 |
| 20260502194339 | 54 | 320 | 3.5 | 8.7 | 0.00 | 0.01 | 0.00 | 50 | 1011.1 |
| 20260502193314 | 54 | 326 | 7.0 | 10.4 | 0.00 | 0.01 | 0.00 | 48 | 1011.4 |
| 20260502192339 | 55 | 297 | 4.3 | 10.4 | 0.00 | 0.01 | 0.00 | 49 | 1011.4 |
| 20260502191314 | 56 | 324 | 2.6 | 8.7 | 0.00 | 0.01 | 0.00 | 49 | 1011.5 |
| 20260502190314 | 56 | 331 | 4.3 | 9.6 | 0.00 | 0.01 | 0.00 | 46 | 1011.7 |
| 20260502185339 | 57 | 22 | 5.2 | 9.6 | 0.00 | 0.01 | 0.00 | 46 | 1011.8 |
| 20260502184315 | 56 | 321 | 1.7 | 9.6 | 0.00 | 0.01 | 0.00 | 49 | 1011.9 |
| 20260502183327 | 58 | 305 | 6.1 | 11.3 | 0.00 | 0.01 | 0.00 | 46 | 1012.0 |
| 20260502182333 | 56 | 349 | 7.0 | 10.4 | 0.00 | 0.01 | 0.00 | 48 | 1012.1 |
| 20260502181338 | 57 | 325 | 4.3 | 9.6 | 0.00 | 0.01 | 0.00 | 47 | 1012.2 |
| 20260502180337 | 56 | 328 | 1.7 | 7.8 | 0.00 | 0.01 | 0.00 | 47 | 1012.3 |
| 20260502170313 | 56 | 5 | 5.2 | 7.8 | 0.00 | 0.01 | 0.00 | 48 | 1012.4 |
| 20260502164340 | 55 | 11 | 4.3 | 8.7 | 0.00 | 0.01 | 0.00 | 46 | 1012.7 |
| 20260502163314 | 57 | 302 | 4.3 | 7.8 | 0.00 | 0.01 | 0.00 | 45 | 1012.8 |
| 20260502162330 | 54 | 5 | 2.6 | 7.8 | 0.00 | 0.01 | 0.00 | 48 | 1012.8 |
| 20260502161317 | 57 | 274 | 4.3 | 7.0 | 0.00 | 0.01 | 0.00 | 47 | 1012.9 |
| 20260502160317 | 55 | 316 | 3.5 | 8.7 | 0.00 | 0.01 | 0.00 | 46 | 1013.0 |
| 20260502152326 | 53 | 291 | 1.7 | 7.0 | 0.00 | 0.01 | 0.00 | 54 | 1013.4 |
| 20260502151349 | 53 | 337 | 4.3 | 9.6 | 0.00 | 0.01 | 0.00 | 57 | 1013.4 |
| 20260502150329 | 53 | 298 | 3.5 | 7.8 | 0.00 | 0.01 | 0.00 | 54 | 1013.4 |
| 20260502130358 | 47 | 323 | 5.2 | 9.6 | 0.00 | 0.01 | 0.00 | 70 | 1013.6 |
| 20260502123312 | 47 | 321 | 6.1 | 7.8 | 0.00 | 0.01 | 0.00 | 72 | 1013.5 |
| 20260502122314 | 46 | 333 | 5.2 | 7.8 | 0.00 | 0.01 | 0.00 | 74 | 1013.5 |
| 20260502121315 | 45 | 351 | 4.3 | 10.4 | 0.00 | 0.01 | 0.00 | 74 | 1013.4 |
| 20260502120333 | 45 | 26 | 4.3 | 8.7 | 0.00 | 0.01 | 0.00 | 75 | 1013.4 |
| 20260502115336 | 44 | 17 | 5.2 | 7.8 | 0.00 | 0.01 | 0.00 | 76 | 1013.5 |
| 20260502113329 | 43 | 349 | 3.5 | 7.8 | 0.00 | 0.01 | 0.00 | 78 | 1013.6 |
| 20260502112334 | 43 | 331 | 3.5 | 7.0 | 0.00 | 0.01 | 0.00 | 78 | 1013.5 |
| 20260502111319 | 43 | 360 | 1.7 | 7.8 | 0.00 | 0.01 | 0.00 | 78 | 1013.5 |
| 20260502110312 | 42 | 9 | 3.5 | 8.7 | 0.00 | 0.01 | 0.00 | 78 | 1013.4 |
| 20260502105316 | 42 | 328 | 4.3 | 8.7 | 0.00 | 0.01 | 0.00 | 79 | 1013.3 |
| 20260502104333 | 42 | 321 | 3.5 | 8.7 | 0.00 | 0.01 | 0.00 | 79 | 1013.2 |
| 20260502103311 | 42 | 319 | 4.3 | 8.7 | 0.00 | 0.01 | 0.00 | 79 | 1013.1 |
| 20260502102313 | 42 | 350 | 4.3 | 8.7 | 0.00 | 0.01 | 0.00 | 78 | 1013.3 |
| 20260502101316 | 43 | 346 | 3.5 | 9.6 | 0.00 | 0.01 | 0.00 | 79 | 1013.2 |
| 20260502100315 | 43 | 319 | 4.3 | 9.6 | 0.00 | 0.01 | 0.00 | 79 | 1013.0 |
| 20260502091313 | 44 | 323 | 4.3 | 7.8 | 0.00 | 0.01 | 0.00 | 79 | 1012.7 |
| 20260502090322 | 44 | 316 | 3.5 | 7.8 | 0.00 | 0.01 | 0.00 | 78 | 1012.6 |
| 20260502071342 | 47 | 321 | 2.6 | 5.2 | 0.00 | 0.01 | 0.00 | 75 | 1012.0 |
| 20260502070320 | 47 | 322 | 0.9 | 2.6 | 0.00 | 0.01 | 0.00 | 74 | 1012.0 |
| 20260502065315 | 47 | 284 | 0.9 | 1.7 | 0.00 | 0.01 | 0.00 | 74 | 1011.8 |
| 20260502064337 | 48 | 284 | 0.0 | 1.7 | 0.00 | 0.01 | 0.00 | 73 | 1011.9 |
| 20260502063317 | 48 | 312 | 0.0 | 7.8 | 0.00 | 0.01 | 0.00 | 72 | 1012.0 |
| 20260502062321 | 48 | 298 | 0.0 | 4.3 | 0.00 | 0.01 | 0.00 | 73 | 1011.8 |
| 20260502061340 | 49 | 329 | 0.9 | 2.6 | 0.00 | 0.01 | 0.00 | 72 | 1011.9 |
| 20260502060340 | 49 | 315 | 2.6 | 4.3 | 0.00 | 0.01 | 0.00 | 72 | 1012.0 |
| 20260502055330 | 50 | 341 | 0.9 | 2.6 | 0.00 | 0.01 | 0.00 | 72 | 1011.8 |
| 20260502054328 | 50 | 321 | 1.7 | 4.3 | 0.00 | 0.01 | 0.00 | 71 | 1012.0 |
| 20260502053340 | 50 | 334 | 1.7 | 12.2 | 0.00 | 0.01 | 0.00 | 72 | 1012.1 |
| 20260502052340 | 51 | 291 | 3.5 | 10.4 | 0.00 | 0.01 | 0.00 | 74 | 1012.1 |
| 20260502051337 | 51 | 297 | 2.6 | 7.0 | 0.00 | 0.01 | 0.00 | 76 | 1012.1 |
| 20260502050340 | 51 | 276 | 1.7 | 7.0 | 0.00 | 0.01 | 0.00 | 78 | 1012.2 |
| 20260502045355 | 50 | 303 | 0.9 | 4.3 | 0.00 | 0.01 | 0.00 | 79 | 1012.1 |
| 20260502044323 | 50 | 322 | 2.6 | 7.0 | 0.00 | 0.01 | 0.00 | 82 | 1011.9 |
| 20260502043322 | 50 | 342 | 0.9 | 7.0 | 0.01 | 0.01 | 0.00 | 84 | 1012.1 |
| 20260502042337 | 50 | 344 | 2.6 | 7.0 | 0.01 | 0.01 | 0.00 | 85 | 1011.9 |
| 20260502041318 | 50 | 108 | 0.0 | 0.9 | 0.01 | 0.01 | 0.00 | 86 | 1011.8 |
| 20260502040319 | 51 | 101 | 0.9 | 1.7 | 0.01 | 0.01 | 0.00 | 84 | 1011.6 |
| 20260502035355 | 51 | 95 | 0.9 | 2.6 | 0.01 | 0.01 | 0.01 | 82 | 1011.7 |
| 20260502034336 | 52 | 79 | 0.0 | 1.7 | 0.01 | 0.01 | 0.01 | 79 | 1011.4 |
| 20260502033329 | 52 | 351 | 0.0 | 1.7 | 0.00 | 0.00 | 0.00 | 77 | 1011.3 |
| 20260502032338 | 52 | 332 | 1.7 | 3.5 | 0.00 | 0.00 | 0.00 | 74 | 1011.3 |
| 20260502031400 | 52 | 321 | 2.6 | 7.0 | 0.00 | 0.00 | 0.00 | 73 | 1011.1 |
| 20260502030318 | 53 | 328 | 0.9 | 2.6 | 0.00 | 0.00 | 0.00 | 72 | 1011.2 |
| 20260502025340 | 54 | 346 | 0.9 | 2.6 | 0.00 | 0.00 | 0.00 | 70 | 1011.3 |
| 20260502024339 | 55 | 351 | 1.7 | 2.6 | 0.00 | 0.00 | 0.00 | 67 | 1011.3 |
| 20260502023333 | 55 | 5 | 0.9 | 5.2 | 0.00 | 0.00 | 0.00 | 63 | 1011.4 |
| 20260502022340 | 55 | 349 | 0.9 | 5.2 | 0.00 | 0.00 | 0.00 | 65 | 1011.4 |
| 20260502021314 | 55 | 5 | 1.7 | 7.8 | 0.00 | 0.00 | 0.00 | 66 | 1011.2 |
| 20260502020350 | 54 | 340 | 3.5 | 7.8 | 0.00 | 0.00 | 0.00 | 70 | 1010.7 |
| 20260502015332 | 54 | 360 | 4.3 | 10.4 | 0.00 | 0.00 | 0.00 | 73 | 1010.8 |
| 20260502014325 | 54 | 310 | 1.7 | 2.6 | 0.00 | 0.00 | 0.00 | 75 | 1010.1 |
| 20260502013334 | 55 | 144 | 0.9 | 2.6 | 0.00 | 0.00 | 0.00 | 74 | 1009.7 |
| 20260502012316 | 55 | 123 | 1.7 | 2.6 | 0.00 | 0.00 | 0.00 | 73 | 1009.4 |
| 20260502011316 | 56 | 120 | 0.0 | 1.7 | 0.00 | 0.00 | 0.00 | 72 | 1009.4 |
| 20260502010337 | 56 | 120 | 0.9 | 1.7 | 0.00 | 0.00 | 0.00 | 69 | 1009.1 |
| 20260502005315 | 56 | 120 | 0.0 | 2.6 | 0.00 | 0.00 | 0.00 | 67 | 1009.0 |
| 20260502004338 | 56 | 110 | 0.9 | 2.6 | 0.00 | 0.00 | 0.00 | 66 | 1008.9 |
| 20260502003338 | 56 | 108 | 1.7 | 3.5 | 0.00 | 0.00 | 0.00 | 67 | 1008.8 |
| 20260502002317 | 56 | 86 | 1.7 | 2.6 | 0.00 | 0.00 | 0.00 | 67 | 1008.9 |
| 20260502001318 | 56 | 105 | 0.9 | 2.6 | 0.00 | 0.00 | 0.00 | 65 | 1008.9 |
| 20260502000339 | 57 | 333 | 0.0 | 7.0 | 0.00 | 0.00 | 0.00 | 63 | 1009.1 |
| 20260501235332 | 58 | 289 | 2.6 | 4.3 | 0.00 | 0.00 | 0.00 | 63 | 1009.4 |
| 20260501234315 | 58 | 173 | 0.9 | 1.7 | 0.00 | 0.00 | 0.00 | 64 | 1008.9 |
| 20260501233335 | 59 | 173 | 0.0 | 0.0 | 0.00 | 0.00 | 0.00 | 62 | 1008.8 |
| 20260501232318 | 59 | 173 | 0.0 | 0.9 | 0.00 | 0.00 | 0.00 | 59 | 1008.5 |
| 20260501231339 | 59 | 173 | 0.9 | 0.9 | 0.00 | 0.00 | 0.00 | 57 | 1008.3 |
| 20260501230314 | 60 | 173 | 0.0 | 1.7 | 0.00 | 0.00 | 0.00 | 57 | 1008.3 |
| 20260501225314 | 60 | 200 | 0.9 | 3.5 | 0.00 | 0.00 | 0.00 | 53 | 1008.4 |
| 20260501224319 | 61 | 245 | 1.7 | 6.1 | 0.00 | 0.00 | 0.00 | 52 | 1008.5 |
| 20260501223350 | 61 | 315 | 1.7 | 8.7 | 0.00 | 0.00 | 0.00 | 51 | 1008.6 |
| 20260501222339 | 62 | 306 | 2.6 | 7.8 | 0.00 | 0.00 | 0.00 | 47 | 1008.6 |
| 20260501221316 | 62 | 249 | 2.6 | 8.7 | 0.00 | 0.00 | 0.00 | 46 | 1008.6 |